{"data":{"norad_id":67357,"epoch":"2026-05-25T01:26:53.470176Z","epoch_age_seconds":63154,"freshness":"FRESH","line1":"1 67357U 26003Z   26145.06034109  .00013801  00000+0  50992-3 0  9990","line2":"2 67357  42.9996 155.7772 0001126 275.8332  84.2391 15.27592788 20501","mean_motion":15.27592788,"eccentricity":0.0001126,"inclination_deg":42.9996,"raan_deg":155.7772,"arg_perigee_deg":275.8332,"mean_anomaly_deg":84.2391,"bstar":0.00050992,"rev_number":2050,"period_min":94.265959574562,"perigee_km":482.23823919154,"apogee_km":483.7833696771,"semimajor_km":6861.1478044343,"source":"CELESTRAK","updated_at":"2026-05-25T13:38:21.527338Z"}}